Jackson, MN

1:40 AM CDT on September 26, 2017 (GMT -0500)
Jackson Municipal

Weather History for KMJQ - January, 2014

Change the Weather History Date:

Wednesday, January 15, 2014

  Actual Average Record
Temperature  
Mean Temperature 22 °F -  
Max Temperature 35 °F 22 °F 44 °F (2012)
Min Temperature 8 °F 6 °F -22 °F (2009)
Degree Days  
Heating Degree Days 44    
Moisture  
Dew Point 10 °F    
Average Humidity 70    
Maximum Humidity 79    
Minimum Humidity 50    
Precipitation  
Precipitation 0.00 in - - ()
Sea Level Pressure  
Sea Level Pressure 29.89 in    
Wind  
Wind Speed 15 mph (WSW)    
Max Wind Speed 25 mph    
Max Gust Speed 33 mph    
Visibility 9 miles    
Events Snow    
Averages and records for this station are not official NWS values.
T = Trace of Precipitation, MM = Missing Value Source: NWS Daily Summary

Daily Weather History Graph

Daily Weather History Graph

Search for Another Location

Airport or City:

Trip Planner

Search our weather history database for the weather conditions in past years. The results will help you decide how hot, cold, wet, or windy it might be!

Date:

Astronomy

Jan. 15, 2014 Rise Set
Actual Time 7:50 AM CST 5:08 PM CST
Civil Twilight 7:18 AM CST 5:40 PM CST
Nautical Twilight 6:43 AM CST 6:16 PM CST
Astronomical Twilight 6:08 AM CST 6:50 PM CST
Moon 5:09 PM CST (1/15) 7:05 AM CST (1/15)
Length of Visible Light 10h 22m
Length of Day
9h 18m
Full, 100% of the Moon is Illuminated
Jan 15
Full
Jan 15
Full
Jan 23
Last Quarter
Jan 30
New
Feb 6
First Quarter

Hourly Weather History & Observations

Time (CST) Temp. Windchill Dew Point Humidity Pressure Visibility Wind Dir Wind Speed Gust Speed Precip Events Conditions
12:13 AM 14.0 °F -2.5 °F 5.0 °F 67% 30.13 in 10.0 mi NNW 17.3 mph 24.2 mph N/A   Overcast
12:33 AM 12.2 °F -6.7 °F 5.0 °F 73% 30.13 in 10.0 mi NNW 21.9 mph 27.6 mph N/A   Overcast
12:53 AM 12.2 °F -7.9 °F 5.0 °F 73% 30.13 in 10.0 mi NNW 25.3 mph 33.4 mph N/A   Overcast
1:13 AM 12.2 °F -6.3 °F 5.0 °F 73% 30.12 in 10.0 mi NNW 20.7 mph 27.6 mph N/A   Overcast
1:33 AM 12.2 °F -5.8 °F 5.0 °F 73% 30.12 in 10.0 mi NNW 19.6 mph - N/A Snow Light Snow
1:53 AM 12.2 °F -4.8 °F 5.0 °F 73% 30.12 in 7.0 mi NNW 17.3 mph 26.5 mph N/A Snow Light Snow
2:13 AM 12.2 °F -1.0 °F 5.0 °F 73% 30.13 in 10.0 mi NNW 10.4 mph 26.5 mph N/A   Overcast
2:33 AM 12.2 °F -2.5 °F 5.0 °F 73% 30.13 in 7.0 mi NNW 12.7 mph 18.4 mph N/A Snow Light Snow
2:53 AM 12.2 °F -2.5 °F 5.0 °F 73% 30.14 in 7.0 mi NNW 12.7 mph 25.3 mph N/A Snow Light Snow
3:13 AM 12.2 °F -1.0 °F 5.0 °F 73% 30.14 in 10.0 mi NW 10.4 mph - N/A Snow Light Snow
3:33 AM 12.2 °F -3.1 °F 5.0 °F 73% 30.14 in 10.0 mi NNW 13.8 mph 20.7 mph N/A Snow Light Snow
3:53 AM 12.2 °F -3.1 °F 5.0 °F 73% 30.14 in 10.0 mi NNW 13.8 mph - N/A   Overcast
4:12 AM 12.2 °F -3.7 °F 5.0 °F 73% 30.13 in 10.0 mi NW 15.0 mph - N/A   Overcast
4:33 AM 12.2 °F 0.7 °F 5.0 °F 73% 30.13 in 10.0 mi NW 8.1 mph - N/A Snow Light Snow
4:53 AM 12.2 °F -1.8 °F 5.0 °F 73% 30.12 in 10.0 mi NW 11.5 mph - N/A Snow Light Snow
5:12 AM 12.2 °F -3.7 °F 5.0 °F 73% 30.12 in 10.0 mi NW 15.0 mph 18.4 mph N/A   Overcast
5:33 AM 12.2 °F -0.2 °F 5.0 °F 73% 30.10 in 10.0 mi NW 9.2 mph - N/A   Overcast
5:53 AM 12.2 °F 1.7 °F 5.0 °F 73% 30.10 in 10.0 mi NW 6.9 mph - N/A Snow Light Snow
6:13 AM 12.2 °F 1.7 °F 5.0 °F 73% 30.10 in 10.0 mi WNW 6.9 mph - N/A Snow Light Snow
6:33 AM 12.2 °F 0.7 °F 5.0 °F 73% 30.10 in 10.0 mi WNW 8.1 mph - N/A Snow Light Snow
6:53 AM 12.2 °F 0.7 °F 5.0 °F 73% 30.10 in 10.0 mi WNW 8.1 mph - N/A Snow Light Snow
7:13 AM 10.4 °F -1.5 °F 5.0 °F 79% 30.10 in 7.0 mi WNW 8.1 mph - N/A Snow Light Snow
7:33 AM 10.4 °F 0.8 °F 5.0 °F 79% 30.10 in 5.0 mi West 5.8 mph - N/A Snow Light Snow
7:53 AM 10.4 °F 2.2 °F 5.0 °F 79% 30.08 in 5.0 mi West 4.6 mph - N/A Snow Light Snow
8:13 AM 10.4 °F 4.0 °F 5.0 °F 79% 30.08 in 7.0 mi SW 3.5 mph - N/A Snow Light Snow
8:33 AM 10.4 °F 0.8 °F 5.0 °F 79% 30.08 in 1.2 mi WSW 5.8 mph - N/A Snow Light Snow
8:53 AM 8.6 °F -2.6 °F 3.2 °F 79% 30.09 in 10.0 mi WSW 6.9 mph - N/A Snow Light Snow
9:13 AM 8.6 °F -1.3 °F 3.2 °F 79% 30.08 in 10.0 mi WSW 5.8 mph - N/A Snow Light Snow
9:33 AM 10.4 °F 2.2 °F 3.2 °F 73% 30.07 in 10.0 mi WSW 4.6 mph - N/A   Clear
9:53 AM 10.4 °F -0.4 °F 3.2 °F 73% 30.07 in 10.0 mi SW 6.9 mph - N/A   Clear
10:13 AM 10.4 °F -0.4 °F 5.0 °F 79% 30.05 in 10.0 mi SSW 6.9 mph - N/A   Clear
10:33 AM 12.2 °F -0.2 °F 5.0 °F 73% 30.03 in 10.0 mi SSW 9.2 mph - N/A   Clear
10:53 AM 14.0 °F 1.2 °F 6.8 °F 73% 30.01 in 10.0 mi SSW 10.4 mph - N/A   Clear
11:13 AM 14.0 °F -0.2 °F 6.8 °F 73% 30.01 in 10.0 mi SSW 12.7 mph - N/A   Clear
11:33 AM 14.0 °F -1.4 °F 6.8 °F 73% 29.98 in 10.0 mi SSW 15.0 mph - N/A   Clear
11:53 AM 17.6 °F 4.3 °F 8.6 °F 68% 29.96 in 10.0 mi SSW 12.7 mph - N/A   Scattered Clouds
12:13 PM 17.6 °F 2.7 °F 8.6 °F 68% 29.95 in 10.0 mi SSW 16.1 mph - N/A   Scattered Clouds
12:33 PM 17.6 °F 2.7 °F 6.8 °F 63% 29.92 in 10.0 mi SSW 16.1 mph - N/A   Mostly Cloudy
12:53 PM 19.4 °F 5.5 °F 8.6 °F 63% 29.90 in 10.0 mi SSW 15.0 mph - N/A   Overcast
1:13 PM 19.4 °F 4.5 °F 6.8 °F 58% 29.87 in 10.0 mi South 17.3 mph - N/A   Overcast
1:32 PM 21.2 °F 6.8 °F 5.0 °F 50% 29.85 in 10.0 mi SSW 17.3 mph 21.9 mph N/A   Overcast
1:53 PM 21.2 °F 6.0 °F 5.0 °F 50% 29.81 in 10.0 mi South 19.6 mph 23.0 mph N/A   Overcast
2:13 PM 21.2 °F 5.2 °F 5.0 °F 50% 29.81 in 10.0 mi SSW 21.9 mph 25.3 mph N/A   Overcast
2:33 PM 21.2 °F 6.8 °F 5.0 °F 50% 29.79 in 10.0 mi SSW 17.3 mph 23.0 mph N/A   Overcast
2:53 PM 21.2 °F 5.6 °F 5.0 °F 50% 29.79 in 10.0 mi SSW 20.7 mph 26.5 mph N/A   Overcast
3:13 PM 21.2 °F 7.3 °F 10.4 °F 63% 29.78 in 2.5 mi South 16.1 mph - N/A Snow Light Snow
3:33 PM 21.2 °F 6.4 °F 12.2 °F 68% 29.75 in 10.0 mi South 18.4 mph 24.2 mph N/A   Overcast
3:53 PM 21.2 °F 7.3 °F 12.2 °F 68% 29.72 in 7.0 mi South 16.1 mph 23.0 mph N/A   Overcast
4:13 PM 23.0 °F 8.7 °F 14.0 °F 68% 29.72 in 10.0 mi South 18.4 mph 25.3 mph N/A   Overcast
4:32 PM 23.0 °F 8.7 °F 14.0 °F 68% 29.71 in 10.0 mi SSW 18.4 mph 24.2 mph N/A   Overcast
4:53 PM 23.0 °F 8.3 °F 14.0 °F 68% 29.70 in 10.0 mi South 19.6 mph - N/A   Overcast
5:13 PM 23.0 °F 9.6 °F 14.0 °F 68% 29.70 in 7.0 mi SSW 16.1 mph - N/A Snow Light Snow
5:33 PM 24.8 °F 10.7 °F 17.6 °F 74% 29.68 in 4.0 mi SSW 19.6 mph - N/A Snow Light Snow
5:53 PM 26.6 °F 12.4 °F 15.8 °F 64% 29.67 in 10.0 mi SSW 21.9 mph 26.5 mph N/A   Overcast
6:13 PM 26.6 °F 12.0 °F 14.0 °F 59% 29.64 in 10.0 mi SSW 23.0 mph 27.6 mph N/A   Scattered Clouds
6:33 PM 26.6 °F 13.4 °F 15.8 °F 64% 29.64 in 10.0 mi SSW 18.4 mph - N/A   Clear
6:53 PM 26.6 °F 14.7 °F 15.8 °F 64% 29.63 in 10.0 mi SSW 15.0 mph - N/A   Clear
7:13 PM 26.6 °F 12.7 °F 15.8 °F 64% 29.61 in 10.0 mi South 20.7 mph - N/A   Clear
7:33 PM 26.6 °F 13.1 °F 15.8 °F 64% 29.61 in 10.0 mi SSW 19.6 mph 25.3 mph N/A   Clear
7:53 PM 26.6 °F 14.3 °F 17.6 °F 69% 29.61 in 10.0 mi SSW 16.1 mph - N/A   Clear
8:13 PM 28.4 °F 15.4 °F 17.6 °F 64% 29.61 in 10.0 mi SW 19.6 mph 25.3 mph N/A   Scattered Clouds
8:33 PM 28.4 °F 14.7 °F 19.4 °F 69% 29.58 in 10.0 mi SW 21.9 mph 27.6 mph N/A   Mostly Cloudy
8:52 PM 30.2 °F 17.1 °F 21.2 °F 69% 29.55 in 10.0 mi SW 21.9 mph 27.6 mph N/A   Overcast
9:13 PM 32.0 °F 22.1 °F 21.2 °F 64% 29.55 in 10.0 mi WSW 13.8 mph 25.3 mph N/A   Scattered Clouds
9:33 PM 32.0 °F 21.6 °F 23.0 °F 69% 29.54 in 10.0 mi WSW 15.0 mph - N/A   Scattered Clouds
9:52 PM 32.0 °F 22.1 °F 24.8 °F 75% 29.53 in 10.0 mi SW 13.8 mph - N/A   Scattered Clouds
10:13 PM 33.8 °F 23.9 °F 26.6 °F 75% 29.54 in 10.0 mi WSW 15.0 mph - N/A   Clear
10:33 PM 33.8 °F 23.9 °F 26.6 °F 75% 29.53 in 10.0 mi West 15.0 mph - N/A   Clear
10:53 PM 35.6 °F 25.2 °F 26.6 °F 70% 29.53 in 10.0 mi West 18.4 mph 23.0 mph N/A   Clear
11:13 PM 35.6 °F 24.5 °F 28.4 °F 75% 29.53 in 10.0 mi West 20.7 mph 25.3 mph N/A   Clear
11:32 PM 35.6 °F 24.2 °F 28.4 °F 75% 29.53 in 10.0 mi West 21.9 mph 26.5 mph N/A   Clear
11:53 PM 35.6 °F 25.9 °F 28.4 °F 75% 29.52 in 10.0 mi West 16.1 mph 23.0 mph N/A   Clear